Weather in Dizmino

Russia / Udmurt Republic     58°13′01″N   52°08′52″E
temp.,
°C
wind,
m/s
gust,
m/s
humid.,
%
clouds,
%
prec.,
mm/h
press.,
hPa
HPBL,
m
8 march, mon
mon801:00−14se4896100 0.0 1001256
04:00−13se41095100 0.6 998447
07:00−12se5994100 0.9 996496
10:00−11ese5992100 1.4 994498
13:00−8ese5892100 0.5 993641
16:00−8ne3693100 1.2 993433
19:00−10n2296100 0.4 99664
22:00−12n2296100 0.7 99834
9 march, tue
tue901:00−13n2296100 0.1 100063
04:00−15nnw2495100 0.1 100279
07:00−18nnw239789 0.0 100448
10:00−15nnw249285 0.1 1007308
13:00−12nnw238595 0.0 1009506
16:00−11n348898 0.1 1010579
19:00−15n3794100 0.1 1012299
22:00−17nne389399 0.2 1014309
10 march, wed
wed1001:00−20nne489493 0.1 1015325
04:00−25nne499394 0.1 1016250
07:00−28nne389238 0.0 1017203
10:00−24nne498719 0.0 1018338
13:00−19n47800 0.0 1018616
16:00−17n48802 0.0 1017742
19:00−22nw339479 0.0 101866
22:00−24nw359739 0.0 101890
11 march, thu
thu1101:00−25wnw36995 0.0 1017105
04:00−22wnw379637 0.1 1017292
07:00−21wnw379899 0.0 1017220
10:00−16wnw479499 0.1 1017350
13:00−11wnw4889100 0.1 1016619
16:00−6nw5988100 0.3 1016877
19:00−9nw51285100 0.0 1017585
22:00−12nw4138598 0.0 1020477
12 march, fri
fri1201:00−15wnw4129276 0.0 1022319
04:00−17wnw4109545 0.0 1023239
07:00−20wnw389619 0.0 1024166
10:00−14wnw478510 0.0 1025274
13:00−9w48800 0.0 1025488
16:00−7w59780 0.0 1025840
19:00−12wsw410890 0.0 1025215
22:00−14wsw411900 0.0 1026252